Location: Newark
(46.7000°N, 60.6000°W)
Time: 12:10:57
(UTC+00:00)

A-11 Canister half - Pass Details

Date: 03 November 2020
Orbit: 1516 x 1684 km, 47.2° (Epoch: 04 December)

Event Time Altitude Azimuth Distance (km) Brightness Sun altitude
Rises 00:39:35 0° 257° (WSW) 4,934 12.3 -40.2°
Reaches altitude 10° 00:42:45 10° 258° (WSW) 3,942 11.6 -40.7°
Enters shadow 00:50:57 64° 258° (WSW) 1,812 9.3 -41.9°
